Theta_e
315 316 317 316 318 318 319 321 323 321 317 320 319 318 316 315 318 322 325 328 330 331 330 333 334 335 336 336 335 336 336 336 336 335 336 335 334 334 334 334 335 335 334 333
317 317 314 315 315 318 318 320 321 318 316 320 319 320 319 318 316 316 321 325 329 330 329 330 333 334 335 335 335 335 336 336 336 337 337 335 334 334 334 335 335 335 335 334
312 315 315 315 314 317 318 319 318 316 315 315 315 318 318 318 319 317 318 317 317 322 324 323 324 328 329 329 328 331 333 333 334 335 336 336 335 334 334 334 334 335 335 334
312 311 316 315 315 316 321 315 315 316 317 315 311 315 315 316 317 317 317 316 316 317 317 316 318 319 318 317 317 321 326 330 330 331 332 333 333 332 332 332 332 333 332 332
310 312 313 315 315 315 318 316 316 316 316 313 312 310 312 309 310 307 307 309 308 307 307 305 310 314 314 314 314 313 314 317 321 326 328 329 330 330 329 329 329 330 330 329
311 311 311 311 312 314 314 315 316 316 317 319 314 313 313 310 308 307 306 306 308 308 307 306 308 309 312 312 313 313 313 312 311 312 313 315 317 318 318 317 317 318 320 324
310 311 311 311 314 312 315 315 322 322 321 322 310 312 312 310 307 306 306 306 306 308 309 309 309 309 310 310 311 312 312 311 311 312 311 311 312 312 313 314 314 316 318 320
312 312 312 312 312 314 315 315 319 325 323 318 309 313 314 309 306 306 306 306 306 309 309 310 310 310 310 309 309 309 310 309 310 311 311 311 312 313 313 313 313 315 318 319
315 313 310 311 311 312 313 315 315 317 313 316 314 312 311 307 307 307 307 307 307 309 309 310 310 310 309 309 308 308 308 308 308 309 310 310 311 312 312 313 313 314 314 315
315 316 312 312 311 311 313 311 314 314 315 318 313 313 313 308 307 308 308 307 308 308 308 309 309 309 308 307 307 306 306 306 305 305 305 305 306 308 310 311 312 312 312 312
312 314 314 312 312 312 312 313 313 314 315 318 314 308 307 306 308 308 307 307 307 308 308 308 309 309 308 306 305 305 305 304 304 304 303 303 303 304 305 307 308 309 309 309
309 311 316 314 311 311 312 312 313 314 315 313 313 312 307 307 307 308 307 307 307 307 308 308 309 308 307 306 305 305 304 304 304 304 303 303 303 302 303 303 303 304 305 305
310 310 313 310 312 312 312 312 314 313 312 315 315 312 307 308 308 308 307 307 306 307 307 308 308 307 307 306 306 305 305 304 304 303 303 303 302 302 302 302 302 302 301 301
309 310 310 312 312 311 313 313 312 313 314 313 312 311 310 310 309 308 307 305 305 305 305 307 307 307 307 307 306 305 305 304 304 303 303 303 302 302 302 301 301 301 301 300
307 305 306 307 308 309 309 310 310 313 313 314 313 313 312 310 309 307 305 305 306 306 305 305 306 306 307 307 306 306 305 304 304 303 303 302 302 301 301 300 300 300 299 299
305 302 303 301 304 304 305 305 306 308 311 312 312 311 308 305 304 304 305 304 305 306 306 305 305 305 306 306 306 305 305 305 303 303 302 302 301 301 301 300 300 299 299 298
304 299 296 298 302 300 296 301 303 304 304 305 305 305 304 304 303 303 303 304 305 305 305 305 304 305 306 306 306 305 305 304 302 302 302 302 301 301 300 300 299 299 298 298
301 298 297 295 292 293 299 300 300 303 302 304 305 304 303 302 304 303 303 304 302 302 302 301 303 305 306 306 306 305 304 303 302 302 301 301 300 300 299 299 298 297 297 297
301 302 295 294 291 298 299 298 299 300 301 300 300 299 302 302 302 303 302 302 302 301 301 301 302 302 301 303 305 305 304 303 302 301 301 300 299 299 298 298 297 296 296 295
298 301 299 294 295 291 300 301 301 302 299 300 301 302 301 301 300 298 300 300 300 300 300 300 300 299 299 301 302 303 302 301 301 301 299 298 297 297 297 297 296 296 295 295
296 302 301 299 300 297 300 300 301 295 297 300 300 300 301 300 299 299 299 300 301 300 299 298 298 297 297 298 299 301 300 300 299 298 297 296 296 296 296 296 295 295 294 293
296 295 295 294 297 298 299 299 299 298 300 300 300 300 300 299 299 299 298 298 299 298 298 297 295 295 295 295 296 297 297 298 297 295 295 295 294 294 294 295 294 293 292 291
297 299 298 298 298 299 300 299 299 298 299 299 300 299 300 299 298 297 297 297 297 297 296 295 294 294 294 294 294 294 294 294 294 293 292 291 294 293 293 293 293 291 290 288
296 296 297 298 298 298 298 298 298 298 298 298 298 298 298 298 297 295 295 294 294 296 295 294 294 294 293 293 293 293 291 293 292 292 292 292 291 291 291 291 291 290 289 286
297 296 296 296 296 296 297 297 297 297 297 296 295 296 296 296 295 295 294 294 295 295 295 294 293 293 294 293 292 292 292 291 291 291 290 290 290 290 289 288 287 287 287 287
296 297 298 298 298 298 298 297 298 297 296 296 295 295 295 294 294 294 293 295 296 296 296 295 293 293 292 295 294 291 291 291 292 291 290 289 289 288 287 286 285 285 285 285
Wind_Speed
3 3 6 9 2 2 8 8 6 1 5 4 7 6 6 8 5 4 5 4 8 7 10 15 16 17 17 19 20 21 21 21 21 21 20 18 19 17 18 18 18 19 18 18
2 8 8 6 8 2 8 9 2 2 2 3 6 5 5 3 5 6 5 4 6 5 6 9 14 15 15 14 15 16 17 19 19 18 20 18 15 16 19 18 19 19 19 19
6 7 12 10 4 2 5 5 7 4 2 1 4 5 5 6 3 6 2 4 5 5 8 7 7 8 8 10 10 14 12 15 14 17 14 14 14 12 10 13 13 14 16 17
2 8 9 8 7 2 3 5 11 13 7 2 2 1 4 2 5 1 3 4 4 3 3 4 6 8 10 8 9 9 11 12 14 14 15 13 15 14 13 13 12 11 9 12
3 6 9 7 4 9 3 6 7 11 7 5 1 3 3 4 5 7 7 7 7 7 6 7 7 3 9 9 6 6 7 9 12 15 14 12 10 10 8 9 5 8 11 10
5 2 2 1 9 11 7 5 5 4 5 3 4 0 4 3 1 2 4 5 5 5 6 6 7 7 7 5 5 6 6 6 6 7 7 8 8 7 6 5 6 7 7 8
4 5 3 1 7 6 4 4 1 1 1 2 4 4 5 6 5 3 5 5 5 4 3 3 2 1 3 2 4 5 6 4 4 5 5 5 5 5 4 5 5 3 3 5
2 2 3 3 3 2 6 4 3 2 2 3 3 4 1 6 7 6 6 6 4 4 3 4 5 5 5 5 5 6 7 5 5 5 5 4 5 4 3 2 3 3 4 4
5 4 4 4 4 4 2 3 1 4 3 1 3 4 6 8 7 6 7 7 7 5 4 5 5 4 4 4 5 6 7 7 6 6 6 5 5 5 5 5 4 2 2 2
4 0 3 4 2 2 2 7 3 3 3 2 4 3 3 8 7 10 11 7 6 3 3 2 3 4 4 4 3 4 5 6 6 6 6 5 5 5 5 5 6 4 4 4
8 3 2 1 3 2 3 1 4 4 1 0 2 1 3 9 7 7 7 7 6 5 1 1 2 3 3 4 4 4 5 6 6 6 6 5 5 5 5 5 5 4 4 4
3 2 2 2 3 4 2 4 4 3 2 2 2 4 5 8 6 4 6 6 5 4 3 0 4 4 4 4 5 5 5 5 5 5 5 5 5 5 5 5 4 3 3 3
1 1 1 3 4 1 1 1 8 4 1 3 3 2 5 5 4 5 7 7 7 5 5 2 2 5 7 8 8 8 8 7 7 6 5 5 5 5 4 5 4 4 4 4
1 2 3 2 3 1 3 5 3 3 1 2 4 7 11 7 12 9 8 8 7 7 6 5 4 6 8 8 9 9 9 9 8 7 6 5 5 5 5 5 4 4 3 3
3 3 2 5 5 1 4 4 4 5 6 5 3 5 9 12 11 5 6 6 8 6 7 6 5 5 8 9 9 9 10 9 8 9 8 7 7 7 6 5 5 4 3 3
2 1 0 2 6 5 2 8 8 8 8 7 9 9 9 6 7 7 7 7 7 8 8 8 6 7 10 10 13 14 14 14 12 11 10 9 9 7 6 6 5 5 4 3
3 2 2 2 3 4 5 6 8 5 6 5 7 6 5 6 6 5 7 7 7 7 7 8 8 11 14 16 18 18 17 16 15 14 12 11 10 9 8 7 7 6 6 5
2 2 2 2 3 1 7 5 5 4 6 7 9 6 6 5 4 6 6 4 7 7 7 8 12 18 20 19 16 18 16 17 17 15 14 13 12 10 10 9 8 7 7 6
6 3 1 3 3 4 9 6 4 5 4 8 6 8 2 5 5 1 7 4 4 6 9 14 16 18 21 21 21 18 18 19 20 19 17 15 13 11 11 10 10 9 8 8
3 4 3 2 2 5 5 2 4 3 4 5 0 4 6 5 2 4 6 6 8 15 17 19 21 20 20 20 15 17 19 20 22 19 16 13 12 12 10 9 10 8 8 7
3 1 6 4 4 6 7 4 3 5 6 3 3 0 2 4 4 4 7 7 13 14 18 19 20 19 18 17 15 15 16 19 15 15 15 12 11 11 10 10 8 9 9 8
6 6 4 2 1 7 5 4 6 6 2 3 2 3 5 5 5 5 8 8 10 12 17 18 17 17 16 13 9 9 7 9 12 13 14 14 9 5 8 9 9 9 10 11
3 7 4 7 6 5 3 7 6 5 4 6 4 6 6 6 6 7 7 7 7 13 13 10 9 11 9 9 8 4 5 10 11 10 8 9 14 10 8 9 10 10 10 9
4 3 3 2 9 14 8 8 7 7 8 8 8 8 5 7 7 8 7 7 7 12 9 7 5 4 7 7 6 5 1 7 8 10 8 7 8 8 7 5 6 8 10 10
5 5 4 5 13 6 11 12 9 8 7 7 9 6 8 7 9 8 7 7 12 12 9 7 6 4 6 4 4 2 2 4 6 6 8 8 7 7 8 8 8 9 7 8
6 8 5 7 10 5 8 6 6 8 9 10 8 7 7 8 9 8 8 16 15 15 14 11 8 5 2 5 2 3 3 5 6 6 7 7 7 8 9 11 9 6 7 8
Wind_Direction
173 104 91 120 291 29 334 323 306 54 318 302 241 247 208 161 154 289 261 188 153 176 172 180 182 177 184 185 190 191 195 200 202 205 211 222 229 234 238 238 237 237 239 238
124 61 128 108 12 44 360 353 3 183 301 286 339 246 278 206 177 180 251 213 171 151 151 144 171 182 193 192 196 204 201 202 207 210 213 220 234 243 244 249 249 245 242 243
27 91 132 116 89 56 67 46 312 339 265 179 292 265 212 238 235 157 227 336 11 151 165 154 163 198 191 207 211 210 210 208 205 209 212 209 211 225 230 230 237 236 241 244
291 140 138 115 86 28 104 13 356 359 341 71 287 268 72 187 140 180 218 199 264 322 69 80 153 172 181 180 196 203 209 197 201 202 204 211 220 233 250 260 256 248 257 251
82 144 160 163 156 156 103 300 4 345 344 360 71 54 289 10 75 41 37 46 27 21 23 1 14 79 144 157 176 181 195 208 217 217 215 218 230 238 250 249 248 249 246 254
90 23 132 76 158 197 189 176 98 21 352 357 284 172 340 66 18 50 66 75 63 37 6 14 26 52 101 129 157 176 182 186 184 178 196 206 215 225 249 264 268 266 252 243
149 121 123 167 130 192 256 139 61 80 97 228 9 21 280 72 49 29 345 352 30 75 66 54 71 102 116 158 180 188 181 178 170 179 192 196 209 226 243 246 241 239 241 243
187 126 150 149 4 137 218 167 139 73 47 347 305 218 239 88 65 32 12 339 343 95 94 93 69 88 129 155 169 173 169 164 160 161 152 148 144 147 153 177 195 195 209 210
356 90 102 25 3 0 165 106 104 117 126 20 238 234 310 96 67 48 35 9 15 49 66 82 78 85 122 144 135 147 151 149 148 144 142 133 124 124 106 93 113 143 195 183
312 33 5 115 221 92 15 163 90 5 128 215 254 199 215 66 36 34 22 21 12 53 42 106 139 139 126 125 141 154 155 160 154 148 140 126 115 108 103 98 96 97 94 109
5 346 34 213 190 130 155 200 50 114 99 232 5 93 16 85 70 42 18 11 8 10 29 222 187 156 166 161 166 182 184 172 162 157 141 131 117 108 101 96 93 93 101 107
26 349 299 66 26 36 0 350 153 158 190 260 82 292 101 119 128 89 36 11 353 343 314 294 173 169 185 203 206 207 200 193 184 165 149 134 119 114 112 101 98 98 96 97
97 59 231 344 357 123 243 160 81 98 62 201 154 206 168 161 98 32 33 7 337 336 322 267 207 195 213 215 213 211 205 200 203 192 173 157 143 141 132 123 119 119 113 105
153 45 345 65 46 24 35 356 358 143 149 295 230 282 294 356 347 354 5 338 339 336 326 279 246 229 227 225 221 220 220 214 208 207 197 193 181 176 167 152 146 143 132 126
354 109 28 341 343 188 193 212 191 198 239 233 293 322 324 306 311 344 335 341 336 322 317 281 265 259 241 226 227 230 231 224 221 222 219 215 202 189 176 164 156 143 138 129
9 117 50 50 13 18 276 259 271 235 228 247 248 272 264 330 10 345 319 340 349 344 347 335 289 271 264 250 234 232 235 231 226 223 222 211 201 186 178 174 170 162 153 146
62 118 27 226 336 340 336 242 209 216 253 242 255 268 20 325 311 329 341 338 338 344 345 337 313 294 288 264 251 241 236 229 220 217 213 205 196 187 184 183 181 174 168 161
135 87 36 261 11 85 242 288 274 294 299 301 289 302 289 286 359 324 299 12 358 341 331 324 321 320 312 294 270 259 241 228 217 213 207 202 193 185 182 182 180 176 173 165
196 180 156 144 197 293 313 314 173 172 292 274 279 286 287 43 333 349 65 18 317 312 309 308 309 312 312 307 295 253 229 221 212 208 201 196 186 181 177 175 175 174 170 162
309 247 143 121 168 217 232 78 81 122 281 283 354 90 61 19 341 275 358 353 326 326 325 324 322 315 315 312 301 258 236 219 208 202 194 187 177 176 171 176 177 173 170 162
104 192 221 228 232 270 252 162 100 98 233 140 118 279 181 240 226 279 316 303 297 304 320 326 325 320 319 316 305 266 255 233 219 189 175 167 172 172 166 168 174 161 156 154
166 161 200 187 238 267 217 110 167 213 284 180 193 235 263 248 275 284 284 283 294 308 320 325 328 331 333 339 328 283 219 213 185 177 166 157 149 153 162 157 154 153 151 147
230 190 180 181 211 230 190 210 230 265 275 287 293 268 240 261 250 270 271 279 280 298 306 317 331 339 351 360 9 304 163 161 167 164 154 143 143 155 155 151 150 152 159 159
241 230 214 92 249 246 261 263 252 249 240 255 257 268 271 260 260 275 274 283 288 301 307 311 318 29 7 11 25 63 180 161 165 148 149 141 142 142 141 146 156 167 171 161
196 141 184 256 272 291 275 263 264 264 246 256 266 250 254 255 265 252 268 280 283 277 277 275 275 263 106 24 348 57 147 191 162 164 171 172 158 162 155 150 163 171 177 189
182 213 204 236 243 199 255 244 239 241 249 246 241 274 253 233 247 253 266 273 270 262 260 256 258 256 278 89 42 283 242 222 201 210 209 206 191 178 176 165 141 156 183 184